Wind_Speed
18 18 18 17 17 17 17 16 16 16 16 16 16 16 16 16 17 17 17 17 17 17 17 17 17 16 14 13 13 12 11 8 8 10 12 11 9 7 4 4 7 10 9 10 12 12 11 12 13 11 10 7 7 5 7 7 2 2 2 2 1 1 2 1 2 1 5 1 4 5 7 4 2 2 1 1 2 4 4 5 6 7 10 13 19 23 23 22
19 19 18 18 18 17 17 17 17 17 17 17 17 17 16 17 17 17 17 17 17 16 17 17 17 17 15 13 13 12 11 8 11 14 14 13 10 11 9 6 7 10 11 12 12 12 10 11 11 8 7 5 7 5 9 4 2 3 3 2 1 1 2 0 2 2 5 2 4 2 4 5 4 4 3 2 3 4 5 8 8 10 15 16 20 22 21 21
19 19 19 18 18 18 18 18 17 17 17 17 17 17 17 17 17 17 17 17 17 16 16 17 17 17 15 12 12 10 10 10 12 11 12 15 13 12 10 7 8 11 13 14 12 11 10 12 12 10 6 6 8 5 9 4 4 5 4 2 2 2 0 2 2 3 4 4 2 1 5 5 9 8 5 5 2 1 3 7 9 10 14 15 16 18 20 19
19 19 19 19 19 19 19 19 18 18 18 17 17 17 17 17 17 17 17 17 16 16 16 16 17 17 15 12 11 9 8 11 6 2 6 10 11 9 8 8 9 11 13 13 13 13 13 14 12 11 8 7 8 5 9 5 5 5 4 3 1 2 3 1 3 1 3 4 3 4 6 7 7 7 5 7 4 5 5 3 7 11 12 15 16 16 17 16
19 19 19 19 19 20 20 20 20 20 19 19 18 17 17 17 17 17 17 17 16 16 16 16 17 17 15 12 9 6 7 6 3 8 6 5 6 8 9 9 8 9 12 13 14 14 13 12 11 10 8 8 9 2 9 8 7 5 5 6 6 3 1 2 2 2 2 2 4 4 6 4 6 4 6 7 3 2 5 8 2 10 13 13 15 14 15 14
19 19 19 19 20 20 21 21 21 21 21 20 19 17 17 17 17 16 16 16 16 16 15 16 16 16 15 12 7 3 7 3 6 7 7 6 6 8 10 9 7 7 11 14 15 14 11 10 10 9 7 8 8 1 8 11 7 3 5 7 7 6 4 4 2 2 0 0 3 4 6 3 5 4 5 5 2 3 5 12 10 6 13 13 14 13 14 13
20 20 20 20 21 21 21 22 22 23 23 22 20 17 16 16 16 16 16 16 15 15 15 16 16 16 14 12 7 4 9 3 8 8 7 7 7 8 9 9 7 8 11 14 13 11 10 10 11 9 8 7 4 3 3 7 4 1 5 8 6 6 2 5 6 6 2 2 3 3 6 4 4 3 2 3 4 6 6 11 12 6 13 13 13 12 12 13
20 20 20 21 21 22 22 22 23 24 24 24 20 17 15 15 15 15 15 15 15 15 14 15 15 15 12 10 7 7 7 2 11 9 6 6 7 8 9 9 9 11 12 13 13 11 10 10 11 9 8 7 5 4 5 3 4 2 4 6 4 0 4 5 6 9 7 4 4 3 6 6 4 2 2 4 5 5 4 9 12 5 13 12 12 12 11 12
20 21 21 21 21 22 22 23 24 24 25 24 20 16 15 14 14 15 15 15 14 14 14 14 14 13 10 7 8 8 2 8 11 7 5 7 9 10 9 10 11 12 13 14 13 12 10 9 9 6 7 9 7 5 8 4 2 9 9 6 6 6 7 6 7 8 7 5 6 5 5 6 5 1 4 6 6 3 1 6 12 3 11 13 11 12 11 10
21 21 21 22 22 22 23 23 24 24 26 24 19 16 14 13 14 14 14 14 14 14 13 13 12 10 8 6 9 6 5 8 9 8 6 8 11 10 11 12 11 12 13 13 12 12 11 11 9 7 7 8 7 6 5 4 6 11 12 8 7 5 4 4 4 4 5 4 4 5 5 5 5 3 4 6 5 2 3 2 10 9 6 12 11 11 11 10
22 22 22 23 22 23 23 23 23 24 26 23 18 15 14 13 13 13 14 14 14 14 13 12 11 8 7 8 9 4 3 2 6 9 7 7 9 10 11 11 11 12 12 11 13 12 12 12 9 6 6 6 8 6 5 10 9 9 7 5 6 5 2 1 2 2 6 4 2 3 5 4 2 4 4 4 3 3 5 3 9 9 3 8 11 10 9 9
23 23 23 23 24 24 23 24 24 24 25 22 17 16 14 13 13 13 14 14 13 12 11 11 8 4 6 9 9 3 4 3 4 5 5 7 9 10 10 11 11 12 11 12 12 10 13 12 8 7 7 7 9 6 10 13 10 9 6 2 4 7 2 4 3 4 6 3 1 1 4 5 1 2 1 3 3 4 6 7 10 8 3 4 8 10 8 9
24 24 24 24 25 25 24 24 23 24 24 21 17 16 14 12 13 13 13 12 11 9 8 8 5 2 6 8 5 2 3 3 3 3 5 7 9 9 9 11 11 12 12 13 11 9 11 8 7 11 10 9 10 4 10 11 8 9 4 1 3 6 1 6 5 5 5 3 1 2 2 4 3 3 2 6 4 4 6 9 10 8 4 3 3 7 8 9
24 24 25 25 25 25 25 24 23 23 23 20 17 16 13 11 12 11 11 10 6 5 5 5 4 2 6 7 2 3 2 3 4 6 7 7 8 8 8 10 10 11 12 13 12 10 8 4 7 10 10 10 9 6 6 9 4 5 3 1 1 3 2 6 5 5 3 4 2 2 5 2 5 5 5 6 5 6 8 9 9 8 5 2 3 6 8 9
25 25 25 25 25 25 25 25 24 23 23 20 17 16 12 10 11 9 8 6 3 3 4 4 5 4 7 9 4 2 3 5 7 8 8 8 9 7 6 8 8 10 10 11 10 8 7 6 8 8 9 11 10 10 3 8 2 2 2 2 2 2 3 4 4 3 1 5 5 4 4 2 5 5 5 4 6 8 8 8 8 9 7 4 5 5 6 6
25 26 26 26 26 25 25 25 24 23 22 19 16 16 13 10 9 7 5 4 2 3 4 3 7 9 7 4 4 4 5 7 7 8 8 9 10 6 5 6 7 9 9 10 10 8 7 7 9 8 9 11 9 9 3 7 4 2 1 2 3 4 4 4 2 2 2 5 5 2 3 2 3 4 6 6 9 10 8 6 6 7 8 8 7 5 5 4
26 26 26 26 26 26 25 24 23 23 22 18 17 15 12 10 7 4 4 4 3 3 5 8 7 8 8 4 2 6 6 5 6 8 8 9 11 4 4 6 6 8 8 9 10 10 9 8 7 7 8 8 7 8 6 4 3 4 3 5 6 6 4 5 1 3 4 3 4 2 2 2 2 4 5 7 9 9 7 6 6 6 7 8 8 6 6 6
27 27 27 27 27 26 25 24 23 23 22 18 16 15 12 11 7 4 5 4 3 5 9 11 9 6 6 9 6 5 6 5 5 7 8 8 9 5 5 7 5 7 8 8 9 9 8 6 7 7 7 8 6 7 7 3 3 7 9 6 6 6 6 7 3 5 6 3 3 3 2 3 4 3 4 6 7 9 8 6 7 7 7 8 8 8 6 7
28 28 28 28 27 27 25 24 23 23 23 17 14 15 12 9 6 6 9 7 4 6 6 5 9 5 3 9 6 3 6 4 4 7 8 8 6 6 8 8 5 6 8 6 7 9 7 5 7 7 6 9 9 9 9 6 4 4 7 7 6 7 8 9 6 9 10 6 5 6 6 6 5 3 4 5 6 7 7 7 6 7 8 7 8 9 7 8
28 28 28 28 28 27 26 24 22 22 22 17 13 12 9 5 3 3 7 10 10 11 11 5 12 11 7 7 7 5 5 4 5 7 8 8 7 8 9 7 6 7 8 7 8 8 7 7 7 8 9 11 11 12 14 9 1 3 4 7 3 8 9 9 10 8 8 6 5 6 9 9 6 5 6 5 6 8 8 9 7 7 8 7 8 10 8 7
28 29 29 29 29 28 26 25 22 21 20 16 11 7 6 6 5 3 2 8 13 17 18 13 12 14 9 2 7 5 4 5 6 7 7 8 9 8 7 7 8 6 7 9 7 8 7 8 8 11 12 12 13 12 11 6 1 3 6 8 4 8 10 9 11 9 6 4 4 5 10 10 7 6 5 5 7 9 10 10 9 9 9 7 8 9 9 7
29 28 30 30 29 28 27 25 22 19 15 11 8 8 8 9 7 8 9 9 13 15 17 15 15 13 8 5 4 5 6 7 7 8 9 9 10 8 6 8 8 7 7 7 7 6 7 9 11 13 12 12 15 9 3 7 6 5 5 8 6 8 13 10 10 10 8 4 4 6 9 10 9 5 6 7 8 9 9 8 7 8 9 8 8 8 8 9
29 30 30 29 30 29 27 26 22 16 12 9 9 11 11 9 8 11 9 8 12 14 14 14 14 11 9 10 6 6 8 9 8 9 12 9 9 9 6 7 8 9 8 7 6 5 6 8 10 12 11 12 16 6 2 4 8 7 7 8 7 5 11 9 9 12 10 6 5 5 6 9 10 4 8 8 7 7 6 6 6 7 8 8 9 8 9 10
30 31 30 30 31 28 27 27 17 12 12 12 14 14 10 9 9 12 9 8 10 12 13 12 12 11 10 9 8 10 10 9 8 9 13 10 10 9 8 9 8 8 7 7 7 8 10 10 6 7 8 12 13 7 2 5 7 9 11 10 9 6 9 13 11 12 12 10 8 6 3 6 10 10 9 8 7 5 4 5 6 7 8 7 9 10 10 10
31 32 30 31 31 28 29 22 9 8 10 12 15 11 6 7 8 10 8 7 7 9 12 11 9 10 12 8 8 9 9 8 9 10 14 11 12 9 6 7 6 7 7 7 8 8 8 5 1 4 7 10 11 8 8 7 6 9 11 12 10 11 2 14 16 10 7 7 9 7 2 3 8 13 14 8 7 6 4 5 6 5 6 6 7 10 10 8
31 31 31 30 30 31 24 10 7 14 14 11 7 3 5 6 7 9 7 6 6 5 9 10 8 8 12 11 8 8 9 9 8 12 16 11 12 9 7 5 5 7 7 5 6 6 4 2 1 4 9 11 9 8 10 7 7 7 5 9 10 6 9 1 7 6 5 3 10 9 3 2 6 8 12 13 9 7 4 3 4 2 3 5 6 6 8 8
31 31 32 29 29 30 17 6 14 18 11 6 6 7 8 6 7 8 6 5 5 6 10 8 6 9 10 10 10 8 5 6 8 12 15 11 11 10 9 7 6 5 4 4 4 2 4 3 2 5 9 9 7 8 9 9 9 4 3 9 9 3 5 8 7 9 5 3 10 11 5 2 5 5 8 14 12 8 8 4 3 3 4 6 7 6 7 8
31 32 32 29 27 23 13 11 16 14 9 10 10 10 10 7 8 6 5 5 2 5 7 6 5 6 8 9 12 9 2 6 8 10 13 12 10 9 10 9 9 8 5 5 4 3 7 7 2 6 9 7 7 8 9 10 9 4 7 11 8 3 4 7 8 7 4 0 4 6 5 1 4 6 7 11 11 8 9 6 3 3 8 8 8 8 8 8
31 31 31 30 25 15 9 11 11 11 13 14 12 12 11 10 8 4 5 5 3 4 4 5 5 6 8 10 12 11 5 5 4 7 13 13 10 9 9 7 10 12 9 8 7 3 2 2 2 7 9 6 8 10 10 11 9 4 10 9 4 6 8 6 5 6 6 5 4 5 6 4 3 6 6 6 7 7 7 3 3 3 7 5 6 7 7 7
31 30 30 31 22 11 9 12 12 9 11 12 12 12 11 9 5 5 6 2 3 4 5 5 6 9 11 11 12 12 11 9 4 6 9 9 10 10 8 8 9 10 8 9 10 5 2 1 4 6 7 6 8 10 7 9 4 5 7 8 4 6 8 6 3 4 6 5 5 8 8 7 3 5 5 2 5 8 8 4 3 4 4 2 3 6 6 6
31 28 28 30 23 12 9 9 6 7 8 10 11 11 9 6 4 6 5 1 2 4 8 6 9 11 13 12 10 11 12 10 7 8 7 6 9 9 7 7 6 6 7 7 9 9 6 4 3 5 8 8 10 7 4 5 4 6 5 7 5 6 7 4 1 3 6 4 5 9 7 4 0 4 6 4 7 9 8 7 5 4 4 3 3 7 7 8
31 27 26 26 21 15 12 8 6 8 8 10 10 8 6 5 6 7 6 3 2 4 6 9 11 11 13 14 11 11 12 10 9 10 8 7 8 8 8 7 6 6 7 6 7 9 9 6 5 6 7 8 9 4 4 3 4 4 5 7 6 5 5 3 2 3 5 5 6 8 4 2 5 6 7 7 7 7 7 8 7 4 5 6 5 6 7 8
30 27 22 17 14 14 14 11 10 9 9 9 8 5 4 6 7 8 8 7 2 4 2 6 11 10 12 12 11 11 12 10 11 11 9 9 8 9 11 11 10 8 6 5 5 6 7 7 9 8 8 8 8 6 5 5 5 7 6 6 6 5 4 5 5 4 4 6 7 4 1 3 6 6 7 8 5 4 7 8 7 5 6 7 6 7 7 7
30 24 17 12 12 13 10 8 8 8 8 8 6 5 7 9 7 8 9 8 5 5 2 5 7 11 11 11 10 11 11 10 12 11 9 9 8 8 10 12 13 12 8 6 5 5 6 7 9 8 6 10 9 10 8 5 5 8 6 5 7 6 4 4 5 4 3 4 6 2 3 1 3 4 4 7 5 4 6 6 6 6 6 7 7 7 8 7
29 20 13 11 12 11 7 8 9 8 7 6 5 6 9 7 7 9 7 5 8 5 6 7 6 8 9 10 11 11 9 9 12 12 10 9 8 8 9 10 13 11 9 7 4 5 7 3 9 6 3 7 7 9 7 8 6 4 5 7 4 5 5 3 4 5 3 3 4 0 4 2 3 6 5 6 7 6 5 5 4 5 5 6 7 7 8 8
28 19 11 11 11 8 7 7 8 7 7 6 6 7 8 7 8 7 5 5 8 9 3 5 6 7 7 7 9 10 10 9 10 9 9 10 10 10 10 9 12 13 9 7 4 3 5 1 9 9 4 3 7 7 7 8 5 4 4 4 2 5 5 5 4 3 5 5 2 3 6 5 5 7 5 5 7 6 5 4 3 4 5 5 6 6 7 7
28 19 12 12 9 7 8 7 7 7 7 6 7 8 8 8 10 10 8 7 5 8 9 6 5 7 7 7 8 9 10 9 9 7 6 9 9 11 12 10 10 12 12 9 6 3 4 3 6 7 6 9 7 8 7 8 3 2 3 2 6 6 4 4 4 2 5 6 2 2 5 7 5 3 3 6 8 6 4 3 2 2 4 5 6 6 6 7
23 14 12 11 5 6 7 7 7 8 6 6 9 10 10 10 12 13 9 7 6 7 8 8 3 5 7 8 8 10 11 7 7 7 6 8 7 10 12 9 10 12 10 9 7 4 4 4 3 5 10 10 8 5 9 4 2 4 4 2 2 5 1 2 3 1 2 4 2 3 2 4 4 3 5 7 9 8 5 3 2 2 3 5 6 5 6 6
15 8 6 6 8 5 6 9 8 8 6 7 9 7 9 12 14 15 12 7 7 8 7 8 6 4 7 9 9 9 11 10 7 5 5 6 3 8 10 8 10 12 6 6 7 5 4 3 3 6 10 7 8 5 7 5 5 6 7 4 4 2 0 1 2 2 2 2 1 2 3 4 4 5 7 9 10 10 9 6 5 3 3 4 5 4 5 5
10 7 1 9 9 5 8 9 7 6 6 8 8 7 9 11 12 13 12 7 5 6 7 9 9 8 8 10 11 10 8 9 9 7 6 6 4 4 8 8 8 10 7 7 9 6 3 3 3 5 7 6 5 6 7 6 6 7 6 6 5 4 5 5 3 3 3 2 2 3 2 3 4 4 6 11 12 10 10 8 7 6 5 5 4 4 4 4
9 6 2 9 8 8 8 7 6 6 7 8 9 11 10 8 10 11 6 2 2 6 9 12 12 11 10 9 9 9 8 9 9 9 7 8 8 5 6 7 6 7 10 9 9 6 4 4 4 4 5 7 3 4 10 9 5 5 5 4 5 4 5 4 2 3 4 4 1 5 4 2 4 4 6 10 11 11 11 10 7 7 7 6 4 3 3 4
7 4 1 8 8 7 7 6 6 6 7 7 9 12 7 2 8 12 9 4 5 6 9 12 13 12 10 9 10 9 8 10 9 9 9 9 9 7 7 11 9 9 7 6 8 8 5 4 5 4 6 7 3 3 8 6 3 7 6 3 3 4 5 3 1 1 3 6 4 5 7 3 4 5 6 8 8 8 8 6 7 8 7 6 5 4 4 4
5 8 6 6 9 7 7 6 6 7 8 9 11 14 11 5 7 10 9 9 8 7 8 9 11 12 10 9 11 11 9 9 12 9 9 11 10 9 10 11 9 8 6 4 6 8 7 5 5 4 5 7 6 6 6 4 4 7 7 5 5 4 4 2 2 2 2 3 3 3 6 5 5 5 5 7 6 7 7 5 6 8 6 6 5 4 4 4
6 10 9 6 10 7 7 6 7 7 7 10 12 13 12 10 8 9 10 10 9 8 9 9 10 10 10 10 11 12 11 8 9 11 10 9 7 6 7 9 9 6 6 5 5 4 4 5 4 4 5 6 6 7 6 6 5 5 6 8 8 8 7 4 2 3 2 3 3 1 5 5 4 3 4 5 7 8 8 5 4 5 4 6 6 4 4 4
7 6 6 7 10 8 7 6 8 8 8 11 11 12 11 9 9 11 11 12 11 10 9 9 10 11 10 12 12 12 14 10 8 9 9 10 9 7 5 6 8 7 3 1 3 4 2 4 4 5 6 6 5 4 2 3 3 3 6 8 8 8 9 6 3 4 4 2 4 1 5 7 5 6 6 6 6 9 9 5 4 3 2 3 6 5 4 4
6 4 5 4 7 7 6 7 9 9 9 11 10 11 12 8 8 10 11 12 12 12 11 10 11 11 10 12 12 12 14 13 11 9 10 11 9 7 9 8 8 6 3 6 4 6 5 5 6 6 6 6 6 3 1 3 5 5 6 7 7 6 6 5 4 5 2 1 3 2 7 10 8 8 8 7 6 7 7 5 4 4 2 2 6 5 4 4
4 5 6 5 2 4 5 7 8 6 8 9 7 8 12 11 10 9 9 9 9 11 11 10 11 11 10 11 11 10 12 13 12 13 13 13 11 11 13 12 10 7 6 1 8 6 6 7 7 9 9 8 9 8 7 9 10 10 9 8 8 7 6 7 7 4 1 1 1 1 5 8 9 9 8 7 6 4 7 6 3 4 4 3 5 5 4 4
5 6 6 8 5 5 6 8 8 10 12 11 7 8 11 12 13 12 7 8 9 10 9 9 12 13 13 13 11 9 11 11 11 13 14 13 14 14 11 9 9 7 6 9 11 6 6 8 8 9 11 12 13 12 12 12 12 11 11 10 10 9 9 9 9 8 4 2 2 4 3 2 6 11 9 7 6 4 6 7 4 4 5 4 4 4 4 3
6 6 7 9 7 7 10 13 14 14 12 11 8 8 11 12 14 14 9 7 9 10 9 9 11 13 15 16 12 10 10 9 10 12 12 13 14 14 10 9 9 9 9 11 10 7 6 8 10 12 11 12 13 12 12 13 12 11 9 9 11 13 12 10 9 10 9 6 5 7 6 2 4 10 10 7 7 5 5 6 6 6 6 5 3 3 3 2
6 5 6 8 8 9 11 12 13 12 10 9 8 9 11 13 14 13 12 11 11 10 10 11 11 12 15 15 13 13 13 14 14 12 12 13 14 12 10 9 8 8 11 10 8 8 7 7 10 12 10 10 11 10 12 14 12 9 9 11 12 12 12 9 7 7 8 7 5 5 7 4 4 9 10 7 6 6 6 6 6 6 6 5 3 3 3 2
10 9 8 6 7 8 9 9 10 9 8 8 8 9 11 13 14 14 12 14 17 14 11 13 14 12 12 15 15 13 12 13 13 12 13 15 13 8 6 7 10 10 9 10 8 9 9 8 8 8 7 8 9 10 13 12 10 10 11 12 12 10 8 8 4 5 6 6 5 5 5 5 6 9 10 8 6 6 7 7 6 5 5 4 3 3 3 2
12 11 9 6 7 8 7 9 10 8 8 8 9 10 11 12 14 14 11 11 16 17 13 14 15 10 8 12 13 9 10 13 12 12 13 14 12 9 7 9 13 14 9 7 8 9 9 8 7 6 7 8 10 13 13 10 9 10 9 8 9 8 7 8 7 5 5 5 4 3 5 6 8 9 9 8 6 5 6 7 6 6 5 4 3 3 3 3
Wind_Direction
22 20 17 14 11 7 3 357 352 346 340 336 333 330 329 327 326 326 327 327 330 332 332 334 334 337 340 340 340 336 333 319 293 258 236 248 263 287 281 230 246 232 220 219 235 252 240 239 238 238 256 260 264 237 140 119 123 129 72 51 232 235 112 37 13 355 268 234 80 36 6 340 186 153 132 272 335 88 111 83 83 110 111 113 122 132 138 141
19 18 16 14 11 8 4 359 354 348 342 336 330 327 324 321 321 320 321 322 324 327 328 329 330 333 339 343 341 341 340 313 272 259 242 243 262 272 266 259 249 219 209 218 231 244 245 255 254 247 247 263 278 198 142 148 179 102 61 73 40 359 91 232 311 331 277 337 58 59 38 337 344 27 359 24 125 148 127 100 87 99 107 116 127 136 141 146
15 14 12 11 9 7 3 360 355 350 344 337 330 324 320 317 316 314 315 318 319 322 323 324 326 327 336 344 340 346 340 302 265 253 229 225 242 258 254 236 225 208 208 223 244 259 266 279 292 299 281 274 277 163 134 175 163 103 92 107 29 332 205 192 258 309 323 6 5 280 89 48 355 352 340 348 34 78 77 107 113 114 122 130 134 141 147 152
9 8 7 6 4 3 1 359 355 351 346 339 331 322 317 314 312 310 311 313 314 318 319 321 322 322 332 343 342 351 322 286 264 127 162 209 233 235 215 201 201 204 219 240 266 279 280 280 285 287 281 281 274 160 132 163 148 116 120 144 154 271 298 232 217 245 342 359 314 296 65 59 330 323 351 344 0 33 356 18 120 135 135 137 142 148 152 156
4 3 2 0 360 359 357 356 353 350 347 341 333 323 316 311 309 307 306 309 310 314 316 315 318 318 326 338 342 341 302 283 109 101 117 175 205 194 186 183 190 208 230 250 267 274 272 273 276 274 271 279 283 167 127 133 133 123 125 155 177 199 264 255 255 53 43 350 312 301 76 71 291 322 8 349 11 64 303 323 18 143 139 144 150 152 157 159
1 360 358 357 356 355 354 353 351 349 346 342 335 324 316 309 306 305 304 306 307 310 313 313 316 315 323 335 336 302 278 296 111 129 128 132 164 175 180 179 191 222 241 257 267 269 263 257 258 258 252 267 286 279 117 123 141 128 137 168 184 200 179 168 186 68 169 169 358 343 83 80 314 22 9 341 340 268 288 321 317 156 144 152 153 157 163 159
359 358 356 355 354 353 352 350 349 348 346 342 335 325 316 308 305 303 302 303 303 307 309 310 311 311 323 333 326 249 253 251 119 130 125 132 152 165 185 187 202 230 243 257 261 260 259 257 259 262 257 267 289 294 48 101 154 86 138 172 181 215 189 127 145 130 156 81 52 344 79 85 316 11 344 299 247 278 321 316 295 184 151 155 158 165 164 161
357 356 355 353 352 351 350 349 348 347 346 342 336 327 317 309 305 302 301 300 301 303 304 308 308 308 327 334 304 261 259 148 121 130 133 152 156 158 186 197 214 232 241 251 257 259 264 262 262 275 283 307 343 306 339 87 175 30 106 152 135 70 20 58 81 92 108 98 119 174 111 142 226 269 296 272 252 286 322 295 288 184 155 160 165 168 162 169
355 354 353 352 351 350 349 348 347 346 346 342 336 329 320 312 306 302 300 298 298 299 300 303 299 303 323 325 287 284 359 103 128 140 145 171 173 167 185 206 217 226 242 251 255 261 265 258 262 302 314 314 327 309 331 5 67 27 37 66 66 29 16 40 60 87 124 134 141 143 124 161 193 315 293 262 262 297 352 300 316 304 172 166 167 168 164 174
355 354 352 351 350 349 348 347 346 346 345 342 337 331 325 318 310 304 301 298 297 296 297 295 294 302 310 291 277 294 72 114 142 147 163 184 182 179 198 222 225 225 243 252 250 252 256 266 293 328 308 292 284 275 330 31 74 52 40 35 29 13 1 42 75 113 120 112 131 130 128 153 168 182 243 247 258 265 132 298 312 304 205 168 168 169 166 174
355 354 352 351 350 348 347 346 346 345 344 342 337 333 329 320 313 307 302 299 296 294 292 287 285 293 289 273 278 311 68 161 160 154 181 195 195 201 213 229 239 238 246 253 250 253 257 273 304 301 287 315 297 286 58 74 77 74 62 27 354 329 294 137 130 111 92 95 104 107 128 128 178 215 213 223 254 234 157 177 269 281 243 172 173 165 167 175
356 354 353 351 349 348 346 346 345 344 344 341 336 334 329 322 316 310 304 300 297 291 284 275 270 290 291 271 263 295 15 281 198 169 196 204 210 219 228 229 240 249 251 254 249 249 255 271 300 280 287 318 297 306 68 75 74 85 83 45 325 307 266 157 152 98 89 87 60 148 142 114 200 239 192 238 260 246 182 180 224 216 173 202 181 163 171 171
356 355 353 352 350 347 346 345 344 343 342 339 336 333 326 323 317 311 308 303 300 291 273 259 246 249 282 278 247 204 348 293 208 205 212 214 222 220 234 237 242 251 251 257 262 267 261 259 275 277 287 292 293 332 89 89 84 96 80 28 319 311 157 139 130 113 111 87 19 276 106 82 300 281 235 247 228 223 208 190 200 178 159 270 206 171 170 162
357 356 355 353 350 348 345 344 343 342 340 337 333 330 324 322 317 314 309 302 301 279 243 225 218 208 256 273 239 161 290 279 195 219 220 212 225 217 228 240 243 244 245 256 271 293 296 276 261 270 275 269 285 300 118 104 96 124 121 160 276 313 109 127 125 122 129 118 103 23 68 114 271 272 247 247 226 215 212 192 185 175 180 236 222 197 170 163
357 356 355 353 350 348 344 342 341 340 339 334 330 329 322 316 316 316 306 295 289 235 218 219 211 215 264 260 214 178 268 237 201 212 212 202 216 213 214 229 235 237 242 250 259 286 301 282 265 260 261 252 252 263 178 106 107 169 158 193 242 250 128 115 123 136 111 114 124 68 72 211 250 254 241 237 237 231 220 199 180 182 190 189 219 213 155 159
356 355 354 353 351 348 344 342 339 337 336 330 327 327 315 309 317 317 308 288 255 200 195 239 210 209 274 298 157 188 230 211 193 193 203 217 224 201 182 215 225 227 234 238 244 268 273 257 260 259 266 267 251 248 200 129 160 191 214 229 224 226 158 117 111 178 173 115 132 136 119 218 251 235 228 220 227 229 224 209 181 185 191 189 215 201 127 168
355 354 353 352 350 348 345 341 337 335 334 328 324 323 312 306 309 306 304 279 271 230 231 274 261 225 260 301 158 197 204 174 168 187 198 227 245 225 165 204 214 212 220 229 237 252 257 242 249 256 251 260 260 254 238 184 173 162 205 236 212 212 155 135 184 195 192 150 139 164 119 162 185 178 202 212 220 223 215 202 187 193 195 189 208 203 156 177
353 352 351 350 349 347 345 341 337 332 330 325 318 319 315 303 290 274 277 270 266 250 252 267 273 269 248 237 235 198 174 153 167 193 194 215 251 260 204 214 208 200 211 225 230 230 237 229 231 245 236 231 235 249 252 223 219 195 196 222 204 186 126 131 169 148 166 206 139 144 143 183 194 163 190 203 208 218 209 201 195 194 201 192 198 213 191 172
350 349 349 348 347 345 344 341 337 331 327 322 318 322 317 296 270 243 242 232 212 237 262 216 205 264 282 205 215 130 135 150 178 189 198 207 229 234 224 234 225 216 226 210 197 207 219 219 225 238 238 234 220 226 255 250 249 228 194 210 194 153 119 129 148 140 155 184 178 176 164 171 202 183 190 206 209 219 210 208 207 196 204 196 191 208 203 179
348 347 346 345 345 343 342 340 335 331 324 317 324 322 301 288 259 213 215 220 226 243 274 252 199 241 274 189 159 105 117 165 200 200 205 201 210 220 217 232 224 214 240 230 186 186 213 224 223 230 232 242 233 222 244 247 245 329 256 247 211 121 118 133 139 136 150 164 196 204 150 149 198 197 187 203 210 216 208 207 210 206 206 193 193 200 196 183
345 345 345 343 343 340 339 338 332 328 319 310 319 302 288 336 345 339 316 249 241 238 251 257 232 242 273 214 140 150 179 183 206 213 193 186 213 221 187 209 231 205 223 247 219 171 201 236 231 237 236 243 249 236 244 266 25 281 266 278 298 116 125 129 123 131 155 155 216 202 135 143 196 200 196 200 209 217 210 208 207 205 208 197 197 198 188 181
345 345 343 341 340 337 336 334 328 323 311 298 288 258 280 345 350 326 323 290 275 260 244 241 244 246 249 250 181 174 205 187 196 206 180 181 213 217 177 191 224 220 203 233 248 190 194 236 231 237 247 248 254 257 314 326 301 267 265 275 267 129 118 117 128 148 169 168 208 195 142 151 177 196 235 210 204 222 214 216 214 199 206 202 194 195 193 188
345 343 342 341 338 335 333 329 324 312 289 265 254 257 287 330 333 318 308 284 286 275 249 224 232 237 218 230 208 184 225 214 200 192 176 187 216 218 228 227 231 239 211 198 246 242 229 243 226 224 235 244 255 261 70 288 271 260 264 272 260 159 126 130 163 171 181 191 196 203 159 143 149 177 259 239 216 230 222 233 243 214 210 205 190 185 197 196
345 342 342 341 335 333 332 327 317 288 262 241 246 261 295 325 319 321 313 281 276 267 254 224 216 225 218 218 188 190 230 230 206 181 167 194 223 209 232 254 255 257 230 207 235 254 266 270 239 213 219 236 258 274 232 236 242 231 235 255 277 255 153 147 173 175 183 201 195 207 192 134 142 161 208 245 240 227 220 231 238 226 218 209 193 181 190 197
344 341 341 341 337 333 330 324 312 301 283 251 248 257 299 321 319 326 317 283 265 249 239 218 204 215 208 189 171 191 220 224 216 180 160 195 228 210 224 241 243 260 246 225 228 240 272 302 242 232 251 244 249 261 244 233 244 234 228 231 249 281 241 147 160 171 188 205 192 202 221 153 163 164 172 196 221 208 205 230 230 231 236 231 207 181 181 188
342 340 340 340 338 335 331 325 333 328 307 275 273 324 326 319 333 326 304 274 260 212 186 187 181 185 188 177 173 205 221 219 213 174 161 192 227 231 257 236 204 257 273 256 242 247 275 7 57 260 266 248 236 251 237 220 248 248 251 244 221 266 313 92 158 211 252 184 172 192 234 175 164 170 167 162 180 192 167 241 266 274 264 267 254 192 174 179
340 339 338 337 338 340 335 316 327 320 300 312 349 342 323 325 334 317 284 269 254 179 156 164 158 165 179 170 177 212 224 174 169 167 166 184 211 227 257 256 225 239 286 272 238 230 227 228 312 267 254 239 225 245 229 212 243 246 355 281 238 174 289 278 261 258 271 111 157 188 223 197 149 190 187 153 156 162 138 155 257 277 244 229 236 202 175 182
337 337 337 333 334 336 311 292 315 304 295 343 342 317 320 319 307 293 271 279 237 151 153 150 122 164 185 165 187 218 130 137 164 165 168 180 199 220 234 249 267 270 285 271 231 172 197 201 212 232 238 235 213 227 220 210 237 289 339 286 265 357 322 272 279 283 289 243 183 199 208 218 148 185 195 149 141 136 120 129 170 257 259 220 194 179 170 179
334 335 334 330 331 334 308 291 295 287 297 321 321 312 312 299 288 260 263 274 176 152 160 151 131 178 193 170 196 223 202 192 206 161 170 178 194 230 248 264 289 289 283 271 274 301 185 206 243 216 224 222 216 233 219 204 222 303 331 300 270 313 298 269 275 289 285 263 257 242 187 186 170 153 156 140 136 131 119 127 177 211 258 232 164 147 152 164
331 332 332 328 328 338 324 286 273 298 311 305 307 307 295 283 273 244 245 252 188 164 134 154 173 184 196 188 195 219 221 214 169 153 184 186 191 219 262 282 289 290 278 258 265 283 92 337 292 247 248 254 258 262 209 186 243 336 330 302 271 259 253 238 246 300 302 281 268 257 198 187 209 131 130 153 138 132 134 151 189 186 209 219 118 109 120 139
327 328 329 324 318 312 302 274 273 328 320 304 308 298 279 256 241 250 238 203 255 163 136 168 186 179 196 207 203 199 219 226 175 168 201 196 197 208 231 247 242 261 266 246 244 237 204 202 244 251 265 277 279 281 136 135 316 330 300 279 265 242 230 209 195 303 285 269 269 264 222 184 342 116 140 144 117 122 135 140 149 161 146 132 94 99 108 117
325 326 322 315 305 282 261 268 325 327 305 311 307 280 262 234 226 241 244 256 235 175 184 198 187 186 195 208 223 196 200 231 203 189 208 204 208 213 217 227 213 218 241 237 228 225 214 188 184 218 231 255 274 266 142 179 256 257 255 269 267 249 232 224 275 274 258 272 281 277 275 95 77 69 78 78 82 108 126 128 134 142 120 106 85 91 102 108
324 325 317 305 293 271 259 279 312 309 298 296 284 262 245 242 233 229 243 259 204 147 232 212 177 187 199 202 226 210 196 218 209 198 209 212 217 212 210 224 233 235 247 267 255 216 203 178 186 213 198 204 255 252 200 201 212 214 223 245 253 246 233 239 258 251 239 266 260 241 358 100 106 71 67 78 62 73 101 115 128 127 109 102 90 85 88 94
325 324 313 295 283 274 264 269 283 292 292 272 257 244 233 238 249 247 246 252 234 174 212 260 194 181 202 214 222 216 206 213 210 204 206 213 225 222 214 217 229 245 259 266 266 237 223 175 181 223 189 170 217 251 261 279 230 216 221 235 257 279 277 247 253 255 219 249 256 183 94 104 128 113 115 113 99 81 89 100 112 113 109 110 108 98 92 90
328 327 311 290 280 273 256 249 257 269 271 250 236 234 230 234 243 248 253 273 284 249 192 231 236 197 205 220 226 227 223 214 204 206 213 218 228 230 222 212 210 227 258 266 257 254 266 191 167 196 138 146 211 234 255 283 269 243 237 218 237 321 331 315 314 313 289 245 267 70 92 81 118 138 148 127 125 123 101 90 93 97 98 98 97 90 87 86
330 329 301 264 255 248 229 228 236 241 246 240 236 233 231 244 247 252 295 329 331 333 295 213 219 231 228 215 225 231 224 218 208 208 219 219 231 239 234 230 210 202 224 262 273 250 280 261 159 167 148 185 252 246 206 226 267 328 286 241 348 341 314 302 301 288 274 255 210 134 123 120 130 145 148 128 123 113 92 89 79 78 83 79 79 76 75 83
329 326 298 264 238 198 193 205 213 221 235 236 236 243 242 250 255 263 292 312 326 327 307 278 195 213 239 224 220 214 203 213 214 212 231 223 225 233 232 243 234 210 207 231 266 256 251 267 149 164 222 220 242 287 252 209 199 252 260 345 350 306 276 299 291 239 274 270 206 155 150 149 157 156 146 141 130 116 103 108 110 115 111 91 79 79 76 83
320 310 292 267 209 163 190 204 207 214 227 236 240 256 262 263 265 269 292 324 312 282 276 277 216 194 242 243 227 206 187 200 223 212 231 238 212 206 221 233 226 222 211 204 234 257 237 256 167 184 245 222 179 265 276 241 184 260 280 347 296 267 264 305 275 241 274 274 298 10 68 136 160 165 167 162 143 136 145 159 177 173 130 104 98 101 99 92
299 284 282 202 164 163 189 187 200 217 223 233 237 245 256 262 267 275 291 314 305 288 271 271 265 245 259 264 264 236 193 193 225 220 223 237 192 183 207 216 204 207 209 206 231 248 218 231 222 214 243 226 154 182 252 229 183 223 264 258 219 233 286 235 250 219 204 245 283 43 63 87 115 147 163 159 150 145 150 166 181 170 141 120 115 106 98 98
290 279 225 145 151 162 168 178 203 219 222 234 247 252 253 260 259 261 267 265 274 285 269 269 274 271 268 266 275 276 236 211 219 223 226 215 179 182 202 212 215 194 187 229 251 262 231 189 208 221 242 245 181 181 236 243 203 200 228 248 227 185 184 197 228 243 217 200 178 154 117 81 89 108 136 142 152 154 146 160 176 161 142 120 99 85 75 77
294 290 168 145 156 162 168 199 217 216 233 236 246 256 260 286 287 274 278 275 255 272 271 274 275 276 285 280 274 278 276 263 232 214 234 221 195 210 198 190 229 208 181 207 232 245 254 223 215 214 233 248 221 193 231 239 241 237 227 237 238 224 223 215 219 280 282 289 241 142 136 110 94 92 109 130 154 165 158 164 165 140 129 123 109 97 80 58
276 300 149 151 164 178 198 236 233 223 242 242 246 256 254 318 293 283 297 296 248 248 259 266 268 271 284 287 285 292 294 289 261 209 216 231 209 209 197 179 207 230 200 196 217 216 230 259 252 228 229 245 238 249 258 258 282 276 265 264 259 255 270 266 201 268 297 308 310 131 136 126 90 91 100 111 129 141 140 144 136 123 123 129 127 116 102 86
281 311 302 186 176 208 237 250 250 238 239 245 250 257 259 266 268 265 274 273 259 253 251 253 257 256 259 264 274 288 290 290 289 261 229 233 218 207 208 185 190 237 232 217 228 211 205 239 257 243 254 262 235 221 249 265 274 272 267 272 274 271 280 273 205 219 218 267 288 135 136 128 92 74 82 99 113 118 112 108 117 122 130 135 128 115 107 101
304 301 290 217 182 218 250 245 255 252 246 250 248 252 260 265 267 262 265 266 258 256 257 254 253 247 251 259 262 273 278 275 285 282 267 260 251 230 212 166 160 219 228 206 223 213 193 213 238 242 249 261 242 213 206 212 229 254 259 254 249 253 264 256 221 253 252 258 292 71 130 135 122 115 121 136 144 128 113 100 94 106 137 147 139 129 120 110
300 277 262 213 187 214 245 252 274 281 289 288 277 271 269 255 244 246 257 268 263 260 264 259 255 249 244 250 251 256 268 272 275 278 274 271 268 253 231 154 160 215 243 59 259 260 227 195 201 238 239 237 247 243 228 246 251 257 263 263 255 253 263 263 240 256 256 277 332 6 139 136 139 165 168 158 142 118 109 111 109 93 84 118 125 129 130 125
306 287 279 236 194 212 234 248 264 268 282 291 288 288 288 280 260 236 232 256 263 259 266 267 263 261 250 248 249 245 249 255 259 263 264 267 266 250 239 218 196 201 69 35 300 271 265 224 199 221 244 248 253 252 240 268 272 273 272 272 267 261 265 266 261 273 282 47 357 25 136 141 152 172 171 154 136 123 125 139 138 128 124 105 116 120 124 129
290 304 320 335 285 250 246 239 246 266 288 282 267 275 280 278 277 255 214 223 250 253 260 267 264 262 257 251 250 248 246 246 245 251 259 265 272 271 254 232 209 168 115 227 254 253 265 251 215 211 226 239 247 238 220 223 238 255 264 264 260 248 236 243 255 276 7 87 275 73 131 152 160 162 158 142 136 138 141 146 143 135 141 129 119 130 144 142
289 301 329 347 320 278 286 289 300 321 312 293 279 281 282 279 281 277 232 204 232 247 249 255 253 254 258 260 260 257 250 246 241 246 255 258 263 273 269 236 207 164 156 232 243 238 255 255 238 229 224 224 235 239 236 230 227 237 256 274 283 271 243 235 244 249 240 202 172 133 133 182 153 148 151 140 137 144 135 136 139 124 124 125 128 143 147 128
307 299 323 341 323 295 300 306 310 309 297 287 290 290 287 283 278 280 276 247 239 240 239 245 250 252 251 247 250 255 254 257 252 243 243 247 252 264 266 242 219 193 197 233 237 224 242 253 251 253 246 236 239 242 246 247 239 239 257 275 279 277 267 250 240 245 244 225 183 153 156 188 136 139 144 125 112 106 98 111 123 119 121 129 136 140 128 111
313 318 327 332 321 306 299 300 300 293 281 273 274 272 272 273 272 275 278 271 261 250 243 245 247 255 259 252 244 243 242 247 252 249 249 248 246 251 254 256 260 233 217 227 230 214 212 229 242 250 257 255 248 242 245 255 259 259 270 274 268 267 272 264 239 244 257 245 214 174 156 148 100 112 119 108 101 107 107 110 117 123 128 132 137 134 121 112
328 324 316 306 299 298 294 291 287 281 277 266 259 263 263 261 261 261 259 265 271 268 263 262 253 245 256 263 258 252 255 264 269 275 277 267 258 260 272 290 304 291 241 216 217 214 206 215 235 241 249 253 248 245 246 253 261 257 252 261 265 264 273 285 267 234 251 255 231 198 164 134 113 113 118 121 131 143 140 131 122 124 129 134 143 135 121 115
339 324 314 300 280 283 286 281 275 272 271 264 258 261 264 264 267 268 262 255 259 262 269 280 282 270 258 268 273 288 321 321 313 305 299 294 287 287 291 288 292 298 284 235 217 222 220 218 226 235 244 245 245 251 253 248 251 252 244 249 263 261 261 281 284 239 223 249 244 179 137 118 123 130 130 139 163 170 147 136 133 133 133 136 135 124 121 119
Height
798 796 795 794 792 791 789 788 787 785 784 782 781 780 779 778 776 775 775 773 772 770 769 768 766 766 765 764 762 761 760 759 759 759 757 752 749 750 750 750 750 750 751 750 750 749 746 745 742 740 740 739 738 739 741 744 747 755 773 793 799 789 781 780 779 780 782 771 763 764 763 768 767 757 747 744 746 745 745 742 738 735 735 739 743 749 753 757
798 797 795 794 793 791 789 788 786 785 783 782 780 779 778 777 776 775 774 773 772 770 769 767 766 766 764 764 762 761 760 758 759 756 752 750 749 749 749 749 750 750 750 750 749 746 745 743 736 734 737 741 737 734 741 745 749 761 779 795 796 786 777 774 774 773 773 769 766 766 767 771 769 762 753 757 760 751 752 751 746 746 745 745 746 750 755 757
798 797 795 794 792 791 790 788 786 785 783 782 780 778 777 776 775 774 773 772 771 770 769 767 766 764 764 764 762 761 760 759 758 752 747 748 748 748 748 749 749 749 749 749 747 743 743 740 734 733 738 742 736 734 745 747 751 760 775 792 789 779 775 771 771 770 767 765 768 767 765 775 774 765 760 764 764 758 759 757 755 758 755 752 751 752 755 757
798 797 795 794 792 791 789 787 786 784 783 781 779 778 777 775 774 773 772 771 770 770 768 767 766 764 764 763 763 762 760 761 757 746 745 747 747 747 748 749 748 749 749 748 747 744 741 738 736 735 740 745 734 733 747 747 751 759 769 785 782 775 778 773 770 769 767 767 770 766 768 780 774 766 766 767 769 769 764 756 754 758 755 754 754 753 755 757
799 797 795 794 792 790 789 787 785 784 782 780 779 777 776 774 774 772 771 771 770 769 768 767 765 764 763 763 764 761 763 769 755 742 746 746 746 747 747 748 748 749 749 749 748 743 741 738 737 738 742 746 736 735 746 741 743 758 766 773 773 773 780 776 768 769 769 770 771 769 778 784 774 771 772 770 776 776 766 755 750 750 751 753 753 754 755 756
799 797 795 793 791 790 788 786 785 783 781 779 778 776 775 774 772 772 771 770 769 768 767 766 765 763 763 763 763 761 767 768 749 742 747 744 746 747 747 749 748 749 749 749 746 742 741 738 740 744 743 743 739 737 741 736 738 758 767 764 765 766 773 777 773 772 769 771 777 778 782 781 776 777 774 773 776 770 760 754 749 746 747 749 751 754 755 758
798 797 795 793 791 790 787 786 784 782 780 778 777 775 774 772 771 771 770 769 769 767 767 766 764 763 762 762 762 761 762 756 742 743 746 744 746 746 747 749 748 750 749 748 744 742 741 740 743 742 740 741 739 735 732 734 737 751 764 762 761 760 762 770 773 776 775 777 782 781 782 782 782 781 775 773 770 764 759 753 749 745 744 748 751 754 755 757
798 797 795 793 791 789 787 785 783 781 779 777 775 774 773 771 771 770 769 769 767 767 766 765 764 762 763 763 761 760 755 747 742 745 745 745 746 744 748 748 748 749 747 747 742 740 740 742 742 737 743 741 734 734 728 733 742 747 757 756 756 759 758 763 769 777 781 783 783 779 783 785 779 776 776 774 766 762 760 754 750 745 745 749 752 754 755 756
798 796 794 793 791 789 787 785 782 781 778 776 774 773 771 770 770 769 768 768 766 767 765 764 764 762 764 762 760 762 752 742 743 745 744 746 745 745 747 746 748 748 745 745 739 739 741 741 738 734 745 742 734 737 729 740 756 751 753 755 758 763 760 764 770 773 775 779 781 780 785 784 776 777 780 772 765 762 759 756 753 749 749 750 752 753 754 756
798 796 794 792 790 788 786 784 782 780 777 775 773 772 771 770 769 768 767 766 766 765 764 765 763 762 764 761 762 765 749 740 744 744 745 746 745 745 746 746 746 745 743 741 738 738 737 737 733 729 738 739 736 736 732 747 756 750 756 759 762 765 762 765 769 768 770 775 776 779 784 782 776 782 786 773 763 762 762 762 757 755 753 749 752 752 753 756
798 796 794 792 790 788 785 784 781 779 777 774 773 771 770 769 768 767 766 766 765 764 764 763 762 763 763 761 765 761 743 740 744 743 745 746 746 746 745 745 744 743 741 739 737 735 734 733 728 732 741 740 736 734 736 745 748 749 758 763 764 763 763 763 766 767 770 775 773 774 780 780 779 782 782 772 764 762 764 767 762 759 755 750 751 752 753 755
798 796 793 791 789 787 785 783 781 779 776 774 773 771 769 769 767 766 765 764 763 763 763 762 763 763 762 761 759 750 740 741 742 742 745 744 745 744 743 744 742 741 740 737 735 733 733 731 729 741 744 740 741 743 745 742 746 755 759 768 770 762 764 764 765 768 771 776 771 770 784 789 786 783 777 770 767 765 766 769 765 761 757 753 752 752 754 754
797 795 793 791 789 786 785 782 780 778 776 774 772 770 769 768 766 766 764 763 763 762 761 761 762 761 765 761 747 740 741 741 741 742 743 743 743 742 742 742 741 741 740 737 734 731 732 731 734 742 739 741 745 741 743 741 747 761 762 771 775 770 773 766 764 770 771 777 768 769 797 804 790 782 775 769 768 769 770 770 766 762 760 759 754 753 755 754
797 795 793 791 788 786 784 782 780 777 775 773 771 770 769 767 766 765 764 763 761 761 761 761 762 762 766 757 740 739 741 739 741 742 741 742 741 741 741 740 740 740 739 738 735 733 733 731 734 739 737 740 740 731 741 749 752 762 769 772 776 782 783 767 763 770 773 776 767 772 803 809 792 782 774 769 769 771 772 769 766 765 764 763 758 756 756 755
797 795 792 790 788 786 783 781 779 777 775 773 770 769 767 766 766 764 764 763 761 762 761 761 762 761 763 753 738 739 741 738 740 739 740 740 739 738 739 739 740 739 739 738 737 736 735 734 738 744 741 733 734 738 750 761 760 762 773 780 777 781 782 769 763 767 773 775 768 778 804 805 791 782 774 769 770 771 771 768 766 767 766 766 763 758 758 757
796 794 792 790 787 785 783 780 778 776 774 772 770 769 767 766 765 764 764 762 762 762 761 762 759 760 765 752 738 739 739 737 737 738 739 738 736 735 736 738 738 738 739 737 737 736 734 737 739 741 741 737 740 746 754 768 772 766 772 782 779 777 781 778 769 763 768 775 774 782 799 801 789 780 774 771 771 771 772 769 767 768 767 767 765 761 764 765
795 793 791 789 787 784 782 780 777 775 773 771 769 767 766 765 764 764 763 763 763 761 761 760 755 759 759 745 739 741 736 734 736 737 738 737 735 733 734 737 736 736 736 736 737 736 735 739 742 741 742 745 744 744 759 776 779 772 771 775 772 768 774 782 778 766 764 774 780 783 790 793 785 778 775 773 772 772 772 772 769 768 767 766 765 763 767 768
795 793 790 788 786 783 781 779 776 774 772 770 768 767 765 764 764 764 763 763 762 762 763 759 758 767 761 743 741 738 731 733 735 735 737 737 735 734 734 734 733 734 738 740 739 738 740 740 743 749 748 748 746 749 764 768 765 768 769 769 765 762 769 779 778 769 768 776 782 789 794 790 785 780 776 772 773 774 772 771 770 768 767 766 765 764 765 767
794 792 790 787 785 783 781 778 776 774 771 769 768 765 764 763 763 763 762 762 763 765 764 757 758 765 757 740 733 729 728 732 734 734 735 735 735 735 733 732 732 736 744 748 745 740 742 745 750 758 757 750 745 746 750 745 743 751 754 755 755 761 770 770 768 763 764 776 781 785 791 788 786 784 778 773 772 774 773 770 770 769 767 765 766 765 763 765
794 791 789 786 784 782 779 777 775 773 770 769 767 765 765 763 763 763 760 759 757 752 749 745 745 746 739 730 727 728 730 732 734 733 733 733 734 734 733 733 735 741 747 749 746 736 737 753 759 757 753 744 736 733 731 729 732 738 743 743 742 757 770 764 764 760 756 772 779 774 781 785 785 784 779 775 774 775 774 773 772 770 768 766 766 765 764 764
793 791 788 785 783 780 778 776 774 773 770 768 767 767 764 759 764 765 758 754 744 737 739 735 732 733 729 724 723 726 731 735 734 730 732 732 731 738 739 737 745 751 746 741 738 731 739 757 756 744 738 732 727 723 721 725 731 737 743 743 741 755 767 759 761 762 755 770 777 767 778 789 785 782 780 776 776 776 774 773 773 771 768 767 766 765 764 764
792 790 787 784 782 779 777 774 773 771 770 768 767 765 758 753 758 757 754 756 742 729 732 729 727 728 722 721 721 723 732 740 739 731 729 730 733 742 741 739 750 751 739 737 739 741 750 756 745 732 727 726 724 719 722 731 736 739 742 745 745 751 762 764 760 759 757 769 774 765 776 791 785 780 780 779 778 774 769 769 770 769 769 768 767 766 765 764
792 788 786 783 780 778 775 772 771 769 768 767 765 761 755 753 754 751 753 760 749 730 726 727 729 729 725 725 721 724 735 740 741 734 726 731 736 738 739 741 746 743 738 741 746 752 757 746 730 723 723 727 728 723 729 740 741 743 744 746 744 739 755 771 763 756 756 759 765 762 769 785 790 790 785 779 776 772 768 768 767 766 766 765 764 764 764 764
791 787 786 782 778 776 772 770 768 767 765 764 762 758 755 754 754 753 753 757 753 734 722 719 721 725 725 722 718 726 736 731 732 731 723 731 736 733 737 739 741 742 737 736 740 748 748 728 714 718 723 728 733 730 734 745 746 743 740 742 741 730 738 756 755 751 754 754 754 758 772 785 791 800 796 779 776 775 770 771 770 766 763 762 761 761 762 762
790 788 785 781 779 774 771 769 765 765 764 760 758 755 755 756 754 754 757 763 757 735 721 717 717 719 716 717 720 722 729 728 723 722 718 725 732 733 734 730 736 746 736 731 736 742 738 719 712 724 729 728 735 737 735 741 746 742 733 729 730 726 726 738 745 750 760 765 755 755 783 796 783 787 793 784 780 778 774 774 774 772 768 764 762 760 761 761
789 787 783 781 779 772 769 767 764 765 763 758 756 754 756 756 754 755 760 772 763 736 727 725 722 721 714 718 720 717 734 734 714 710 716 722 722 726 736 730 730 740 731 726 731 733 729 718 718 730 733 731 736 739 731 732 746 746 728 715 717 723 727 732 740 748 757 762 752 748 775 796 787 780 782 782 783 780 779 780 777 778 777 773 769 762 760 761
789 786 783 781 778 776 772 768 767 766 761 758 756 756 757 755 756 755 765 785 768 733 729 729 723 721 715 716 716 726 748 734 712 712 713 719 719 719 738 738 731 733 722 725 740 735 725 724 727 730 733 735 739 740 728 724 742 742 720 712 716 722 730 733 735 741 741 743 749 745 753 780 793 782 769 771 781 781 782 785 781 779 779 777 773 764 759 760
788 785 782 780 778 779 775 772 771 765 761 760 757 758 757 755 757 756 777 800 767 724 723 724 717 715 712 713 715 727 735 722 726 728 708 714 721 720 738 738 732 732 718 730 751 734 717 726 732 732 737 739 734 730 720 719 736 730 713 712 713 718 728 730 733 738 732 742 760 748 742 774 792 776 760 763 775 782 784 785 782 780 779 774 768 762 759 759
787 784 781 778 777 776 774 774 771 765 763 760 759 761 756 756 757 761 787 796 751 718 721 720 719 719 715 719 724 725 723 720 731 726 707 715 719 719 734 730 727 732 721 726 741 728 716 718 720 726 735 733 723 714 710 718 728 718 711 713 714 720 727 728 736 740 738 750 761 746 742 771 786 771 762 766 774 782 784 782 777 778 779 770 760 759 759 759
785 783 781 777 776 775 775 773 768 765 763 761 762 760 756 759 763 780 802 782 739 722 720 721 725 725 724 731 734 730 726 725 724 719 716 721 719 719 725 720 723 733 728 725 730 724 716 711 711 719 724 719 712 706 704 711 715 712 718 723 725 729 727 729 735 739 755 766 756 741 735 754 781 779 769 770 770 772 779 781 776 775 775 766 758 759 760 760
782 781 779 777 775 775 775 770 764 764 763 763 763 758 760 765 771 795 795 752 730 731 723 726 728 722 728 738 738 733 731 727 721 727 732 727 728 730 730 732 734 741 743 737 731 724 718 720 720 717 712 710 713 711 706 708 711 718 729 733 741 742 734 739 744 750 778 781 754 736 725 739 778 784 767 763 761 761 770 775 774 772 769 764 759 758 758 759
780 778 776 774 772 772 771 766 762 764 763 763 762 758 766 778 783 790 770 734 738 741 724 725 726 722 729 735 735 732 733 732 724 728 735 734 738 737 738 744 741 751 759 746 736 730 724 724 722 716 711 710 720 725 720 717 719 727 736 741 756 762 757 766 770 771 785 775 747 734 730 748 780 778 763 763 761 759 761 765 768 768 766 763 760 758 756 757
778 774 772 771 769 767 766 764 763 765 764 762 763 761 772 791 788 771 753 741 742 731 716 716 717 720 728 734 735 728 728 733 725 726 730 730 738 736 733 733 729 744 753 740 737 738 734 727 719 721 718 710 719 732 735 732 729 733 738 746 760 767 776 788 784 778 781 769 744 730 739 767 783 774 765 765 763 758 756 758 762 762 762 762 760 758 757 757
775 772 770 767 766 765 763 764 764 764 764 762 765 769 781 794 778 753 746 739 725 715 715 717 715 721 728 732 732 723 727 733 721 724 730 730 739 740 733 729 724 730 736 736 737 737 745 746 729 724 721 712 717 723 725 725 725 726 721 731 749 752 763 778 775 773 775 766 748 738 756 781 785 774 764 760 760 757 756 756 756 757 758 758 758 757 758 758
772 770 768 765 764 762 761 763 763 764 765 762 768 777 785 785 767 750 743 729 717 714 714 714 716 727 732 729 724 715 721 729 719 721 730 732 738 737 731 728 724 724 732 742 738 727 738 741 719 712 710 710 718 713 709 720 730 721 708 723 744 740 742 754 757 756 758 764 763 758 770 775 769 765 756 754 758 757 758 760 759 760 758 756 759 759 758 760
770 767 766 764 761 761 761 762 763 763 763 765 775 781 776 766 753 743 733 722 723 722 719 721 725 735 738 731 727 719 715 720 721 724 728 727 729 727 723 719 713 716 727 737 737 731 741 737 711 709 713 709 714 709 703 720 735 729 722 730 730 721 729 749 757 749 751 771 775 767 775 773 768 768 758 755 764 761 763 767 764 763 761 759 762 761 760 762
770 767 764 760 758 759 761 761 762 763 762 767 779 776 762 750 739 732 724 719 724 725 730 739 733 734 741 735 730 725 719 721 721 726 730 727 725 721 717 713 705 707 712 720 729 726 735 740 716 713 726 712 702 706 703 703 717 733 740 733 722 721 726 742 762 765 768 780 772 762 775 780 782 784 768 761 771 770 769 769 766 765 763 764 765 764 764 763
771 768 762 757 756 758 759 761 761 761 762 770 777 770 757 746 733 725 720 719 724 727 736 745 733 728 735 736 729 719 720 729 726 726 731 729 722 713 711 713 705 701 699 707 725 719 721 742 731 716 725 712 697 714 723 708 705 721 728 720 727 749 752 752 767 780 791 799 786 771 773 775 778 782 773 768 772 773 772 770 769 768 765 767 767 766 765 764
773 770 761 753 755 757 757 760 758 759 766 773 776 767 754 746 733 723 719 722 729 734 739 740 732 729 730 729 726 714 713 726 726 726 730 728 722 709 703 708 706 702 698 702 719 716 713 742 749 722 712 710 708 726 740 730 716 716 720 717 723 742 754 756 759 767 786 805 804 793 787 779 771 765 765 767 766 768 772 770 769 769 767 767 767 765 765 764
771 770 761 751 754 758 756 757 758 762 769 769 766 757 747 739 730 720 716 720 728 734 739 737 733 734 731 724 722 716 712 717 718 724 726 720 721 716 702 702 704 702 702 704 713 715 713 735 752 732 714 719 726 730 733 731 727 727 733 734 730 732 740 747 749 749 761 784 797 804 805 788 762 750 754 761 762 763 766 766 766 765 765 765 765 765 765 764
771 770 761 750 754 756 755 760 762 762 765 762 757 751 742 736 729 720 714 717 726 729 731 734 733 733 731 727 724 718 716 715 712 718 722 712 715 719 703 696 702 702 706 714 716 719 721 729 742 741 734 734 730 718 713 715 719 725 732 734 732 732 738 753 765 754 746 759 771 788 807 790 754 744 748 751 756 758 757 759 761 761 762 765 765 764 765 764
773 770 758 750 755 754 755 763 760 755 758 755 748 742 736 733 733 729 722 721 728 729 727 731 733 732 733 732 727 721 721 720 712 712 717 710 707 710 698 690 696 697 703 717 716 710 714 724 736 742 737 731 721 710 705 706 708 716 722 722 724 729 735 755 775 765 755 761 757 767 796 786 750 741 744 745 748 749 749 752 756 759 762 763 764 763 764 765
773 766 753 749 752 751 758 766 759 753 752 744 737 733 729 729 732 732 729 729 731 730 730 731 730 730 731 729 728 727 726 725 718 709 709 707 699 695 689 686 693 696 702 716 716 706 712 728 741 745 737 724 714 709 706 706 712 723 724 718 722 729 729 738 753 753 757 765 760 773 799 785 753 743 744 744 745 745 749 750 753 759 761 761 764 763 764 765
775 766 753 748 749 750 760 767 760 753 746 737 735 733 727 726 730 732 733 733 731 730 733 732 728 728 727 725 726 727 726 729 726 712 707 706 696 685 682 685 694 701 705 711 711 708 719 733 743 756 761 752 742 734 728 722 722 729 727 719 720 723 723 729 736 741 754 756 752 774 799 783 757 748 746 746 746 747 751 751 752 758 759 760 763 764 764 766
778 768 753 745 745 749 756 756 753 751 746 741 741 736 730 727 725 727 732 732 727 727 732 729 723 722 722 723 726 725 723 727 728 718 711 710 701 688 684 688 694 699 701 702 700 704 721 733 740 758 773 776 771 761 751 741 732 729 726 721 719 720 724 732 739 749 761 754 746 766 785 775 758 752 750 748 748 751 755 754 754 757 758 759 762 763 765 765
780 771 758 747 742 745 749 745 746 751 749 748 748 741 737 735 727 721 726 731 727 724 728 726 721 722 723 725 730 731 725 723 725 723 719 716 707 695 689 689 692 698 703 703 701 706 720 727 731 745 755 758 758 750 739 738 740 739 733 726 724 724 724 731 744 754 754 753 758 764 766 768 765 758 754 752 751 754 757 756 756 757 759 760 761 763 764 764
782 774 764 758 754 750 748 742 742 746 745 746 749 744 740 741 734 724 722 728 727 724 727 727 723 728 731 729 732 734 728 724 725 726 724 719 710 700 692 688 691 699 705 706 704 711 726 731 728 734 740 738 737 733 728 732 738 739 734 728 726 725 726 733 745 747 742 755 773 763 752 762 765 755 754 754 752 754 755 756 757 756 758 760 761 763 764 764
780 773 761 761 765 762 756 749 744 747 746 743 743 743 743 743 740 733 724 722 723 723 729 733 729 729 730 729 733 735 732 731 731 728 726 722 716 710 702 695 694 700 705 708 705 710 729 736 727 727 733 729 726 725 724 726 729 728 727 728 726 724 727 733 738 735 735 752 766 756 750 757 755 751 753 751 749 752 752 752 754 754 757 760 761 764 764 764
778 774 764 762 767 765 760 754 750 751 751 747 746 747 748 748 745 737 727 726 729 724 727 736 735 728 725 724 730 736 736 737 738 731 725 723 720 718 717 710 702 698 702 710 708 707 725 736 726 724 730 727 723 723 721 721 723 722 723 726 727 725 724 725 728 727 729 739 744 745 751 752 745 746 749 745 745 748 748 750 753 755 759 761 762 764 765 765
781 780 775 773 773 768 762 757 755 755 751 749 752 750 747 748 747 739 730 731 735 728 723 731 732 726 723 721 724 732 729 727 731 726 721 724 722 718 718 716 709 702 703 711 711 708 722 735 726 723 733 732 724 722 722 722 723 725 728 728 726 726 724 722 725 726 729 735 736 738 751 754 744 740 744 745 746 749 751 754 756 758 760 762 763 765 765 766
785 782 781 782 780 772 767 762 758 758 755 750 750 748 745 745 742 738 733 727 727 725 722 725 725 721 722 722 722 724 718 715 718 716 713 718 716 712 715 716 715 714 709 709 713 712 720 730 725 726 743 743 729 726 727 723 724 731 735 732 728 728 729 726 725 726 731 737 739 743 755 759 748 742 745 748 748 750 754 756 757 759 760 761 764 765 765 766
788 785 781 783 782 774 769 765 759 759 757 749 744 743 742 740 733 732 734 727 719 718 718 719 721 721 725 729 725 719 716 716 716 712 710 711 707 706 712 714 713 716 714 711 713 713 715 725 728 734 749 747 732 729 727 727 742 748 735 727 727 727 729 729 725 723 725 729 739 750 755 753 746 745 749 751 749 750 752 753 757 760 760 762 763 763 765 765